Location: Hohe Wand Kleine Kanzel
(47.8330°N, 16.0170°E)
Time: 16:24:46
(UTC+02:00)

Courier 1B Rocket - Pass Details

Date: 04 August 2021
Orbit: 920 x 1202 km, 28.3° (Epoch: 23 September)

Event Time Altitude Azimuth Distance (km) Brightness Sun altitude
Rises 04:00:19 0° 238° (WSW) 3,754 - -13.7°
Reaches altitude 10° 04:05:02 10° 209° (SSW) 2,733 - -13.2°
Exits shadow 04:06:50 12° 193° (SSW) 2,569 6.7 -13.0°
Maximum altitude 04:07:23 12° 188° (S) 2,553 6.7 -12.9°
Drops below altitude 10° 04:09:42 10° 167° (SSE) 2,674 7.0 -12.6°
Sets 04:14:11 0° 137° (SE) 3,575 8.0 -12.1°
